THOR ABLESTAR R/B, 118

Orbit data source: Space-Track

THOR ABLESTAR R/B, 118 is space debris in LEO originally from a launch on Thu, 29 Jun 1961 UTC launched from the Air Force Eastern Test Range (AFETR). Debris objects in space refer to the collection of defunct objects orbiting the Earth. Examples of debris include non-operational satellites, rocket bodies, and fragments generated from explosions, collisions, or faulty payload assembly.

Loading next visibility...
Identifier
118, 1961-015C
Orbit
LEO
Country
Flag of USUS
Related business
Manufacturer
Aerojet
Mission
Spacecraft
Bus & Motor
ABLESTAR, Unknown motor
Mass
~600 kg wet, 600 kg dry
Launch date (UTC)
1961-06-29 (65 years ago)
Launch vehicle
Unknown
Launch site
Air Force Eastern Test Range (AFETR)
Object type
Payload
Rocket body
Debris
Shape & HBR
CYL, 1.1 m
Radar Cross Section
Large (>1 m²)

Expand to show TLE details & history
Last TLE update: 20 hours ago

TLE from 20 hours ago
0 THOR ABLESTAR R/B
1 00118U 61015C   26266.17734554  .00000001  00000-0  50515-4 0  9992
2 00118  66.7639 176.1000 0085258 206.9793 152.6847 14.02761458329889
Epoch: 2026-09-23T04:15Z
TLE epoch observation values (Epoch: 2026-09-23T04:15:22.654Z)
Latitude
-0.00008°
Longitude
110.22336°
Altitude
941.463 km
Speed
7.353 km/s
True Right ascension
11h 44m 23s
True Declination
0° 00' 00"
Sunlit
Object was in daylight at epoch
Visualization orbit readout
Latitude
Unknown
Longitude
Unknown
Altitude
Unknown
Speed
Unknown
Apparent Right ascension
Unknown
Apparent Declination
Unknown
Sunlit
N/A
Visualization observer readout
Local Sidereal Time
17:29:42
Azimuth
Unknown
Elevation
Unknown
Doppler factor
Unknown
Orbital elements
Apogee altitude
944.541 km
Perigee altitude
820.733 km
Semi-major axis
7,260.774 km
Eccentricity
0.00853
Inclination
66.7639°
RAAN
176.1°
Arg. of periapsis
206.9793°
True anomaly
153.12881°
Mean anomaly
152.6847°
Eccentric anomaly
152.90718°
Mean motion
3.50807 °/min
Orbital period
102.62 mins
BSTAR
0.000050515
Loading maneuver chart data...
Computing Atmospheric mass density...

Documentation

Showing up to 5 results
|